Flag for Russia Weather past 2 weeks in Orenburg, Russia

Now
63 °F

Passing clouds.


Feels Like: 63 °F
Forecast: 50 / 78 °F
Wind: 6 mph from North

Location: Orenburg / Tsentralny

Current Time: Jul 25, 2014 at 12:43:13 AM

Latest Report: Jul 25, 2014 at 12:00 AM


Visibility: N/A

Pressure: 29.80 "Hg

Humidity: 49%

Dew point: 43 °F

Location of OrenburgLocation

Historic Weather in Orenburg — Graph

°F

Orenburg temperature yesterday

Maximum temperature yesterday: 81 °F (at 4:00 PM)
Minimum temperature yesterday: 59 °F (at 3:30 AM)
Average temperature yesterday: 70 °F

Past Weeks' High & Low Weather Summary

 TemperatureHumidityPressure
High91 °F (Jul 16, 6:00 PM)88% (Jul 10, 4:30 AM)30.09 "Hg (Jul 10, 4:30 AM)
Low45 °F (Jul 13, 2:30 AM)17% (Jul 16, 6:30 PM)29.59 "Hg (Jul 10, 4:00 AM)
Average66 °F49%29.82 "Hg
* Reported Jul 9 11:00 PM — Jul 24 11:30 PM, Orenburg, Weather by CustomWeather, © 2014

Note: Actual official high and low records may vary slightly from our data, if they occured in-between our weather recording intervals... More about our weather records

Advertising

Orenburg weather history for previous 24 hours

 ConditionsComfort  
Time TempWeatherWind HumidityBarometerVisibility
11:30 PM
Jul 24
64 °FPassing clouds.8 mph46%29.80 "HgN/A
11:00 PM66 °FPassing clouds.8 mph43%29.80 "HgN/A
10:30 PM68 °FPassing clouds.6 mph40%29.80 "HgN/A
10:00 PM73 °FScattered clouds.6 mph31%29.80 "HgN/A
9:30 PM77 °FScattered clouds.8 mph28%29.77 "HgN/A
9:00 PM77 °FScattered clouds.10 mph28%29.77 "HgN/A
8:30 PM77 °FScattered clouds.10 mph28%29.77 "HgN/A
8:00 PM79 °FScattered clouds.13 mph26%29.77 "HgN/A
7:30 PM81 °FScattered clouds.15 mph24%29.77 "HgN/A
7:00 PM81 °FBroken clouds.17 mph21%29.77 "HgN/A
6:30 PM81 °FBroken clouds.15 mph23%29.80 "HgN/A
6:00 PM79 °FMostly cloudy.17 mph26%29.80 "HgN/A
5:30 PM77 °FMostly cloudy.17 mph30%29.80 "HgN/A
5:00 PM81 °FMostly cloudy.13 mph26%29.77 "HgN/A
4:30 PM81 °FMostly cloudy.13 mph26%29.80 "HgN/A
4:00 PM81 °FMostly cloudy.10 mph28%29.80 "HgN/A
3:30 PM77 °FMostly cloudy.10 mph34%29.80 "HgN/A
3:00 PM77 °FMostly cloudy.6 mph34%29.80 "HgN/A
2:30 PM77 °FMostly cloudy.8 mph32%29.80 "HgN/A
2:00 PM77 °FMostly cloudy.6 mph34%29.80 "HgN/A
1:30 PM77 °FMostly cloudy.6 mph32%29.80 "HgN/A
1:00 PM73 °FMostly cloudy.3 mph44%29.80 "HgN/A
12:30 PM72 °FMostly cloudy.6 mph50%29.80 "HgN/A
12:00 PM72 °FMostly cloudy.6 mph53%29.83 "HgN/A
11:30 AM70 °FMostly cloudy.3 mph57%29.83 "HgN/A
11:00 AM66 °FMostly cloudy.3 mph68%29.83 "HgN/A
10:30 AM66 °FMostly cloudy.3 mph68%29.83 "HgN/A
10:00 AM64 °FMostly cloudy.3 mph73%29.83 "HgN/A
9:30 AM64 °FMostly cloudy.3 mph73%29.83 "HgN/A
9:00 AM64 °FMostly cloudy.1 mph73%29.83 "HgN/A
8:30 AM63 °FMostly cloudy.1 mph77%29.80 "HgN/A
8:00 AM61 °FMostly cloudy.1 mph83%29.80 "HgN/A
7:30 AM61 °FOvercast.3 mph83%29.80 "HgN/A
7:00 AM59 °FOvercast.3 mph88%29.80 "HgN/A
6:30 AM59 °FOvercast.6 mph88%29.80 "HgN/A
6:00 AM59 °FOvercast.3 mph88%29.80 "HgN/A
5:30 AM61 °FOvercast.6 mph83%29.80 "HgN/A
5:00 AM61 °FSprinkles. Overcast.10 mph83%29.80 "Hg4 mi
4:30 AM59 °FSprinkles. Overcast.6 mph88%29.80 "Hg4 mi
4:00 AM59 °FSprinkles. Overcast.3 mph88%29.80 "Hg4 mi
3:30 AM59 °FSprinkles. Overcast.8 mph88%29.80 "Hg4 mi
3:00 AM61 °FSprinkles. Overcast.8 mph77%29.80 "Hg4 mi
2:30 AM64 °FOvercast.8 mph60%29.80 "HgN/A
2:00 AM66 °FOvercast.6 mph52%29.80 "HgN/A
1:30 AM68 °FOvercast.8 mph49%29.80 "HgN/A
1:00 AM68 °FOvercast.10 mph49%29.77 "HgN/A
12:30 AM68 °FOvercast.10 mph49%29.77 "HgN/A
12:00 AM68 °FOvercast.10 mph46%29.77 "HgN/A
Weather by CustomWeather, © 2014

See weather overviewHow to use our weather pages